Lapse_Rate
5.1 5.3 4.9 4.9 4.2 4.2 4.5 4.5 4.4 4.6 5.0 5.1 5.2 5.1 5.0 4.8 4.9 4.7 4.8 4.7 4.4 4.6
5.3 5.1 5.9 5.3 5.7 5.1 5.2 5.5 5.3 4.8 4.7 5.0 5.5 5.3 5.2 5.0 4.9 4.7 5.0 4.8 4.7 5.0
5.9 5.4 5.2 5.7 5.9 6.0 6.1 5.8 4.9 5.3 5.5 5.3 5.1 4.9 5.0 4.7 4.5 5.0 5.2 5.2 4.8 5.3
6.2 6.1 6.3 5.9 5.7 6.0 6.0 5.9 5.9 5.6 5.3 5.6 5.0 4.8 5.0 5.2 5.3 4.9 5.0 5.2 5.0 4.9
6.2 6.0 6.0 5.7 6.0 6.1 6.2 5.9 5.2 5.2 5.2 5.0 4.5 4.6 5.0 5.2 4.6 5.2 5.3 4.9 4.8 4.8
6.2 6.6 6.2 6.1 6.2 6.0 5.7 5.4 5.6 5.4 5.2 5.2 5.1 5.3 4.3 4.6 5.1 5.3 5.1 4.7 4.7 4.7
6.6 6.4 6.5 6.3 6.4 6.0 6.0 5.9 5.3 5.2 5.2 5.2 5.2 5.1 5.7 5.3 4.8 4.7 4.8 4.8 4.8 4.6
6.5 6.5 6.5 6.4 6.3 6.1 5.8 5.6 5.4 5.0 4.3 4.8 5.6 5.7 5.3 5.0 4.9 4.8 4.8 4.9 5.0 5.1
6.4 6.8 6.1 6.0 5.7 5.7 5.8 5.7 5.3 4.6 3.9 5.0 5.3 5.1 5.0 4.8 4.8 5.0 5.0 5.2 4.9 4.7
5.9 6.1 6.2 6.0 6.0 5.9 5.8 5.6 4.6 4.5 4.7 4.9 4.9 4.9 4.7 4.7 4.8 5.2 4.9 4.7 4.6 4.4
6.3 6.0 5.6 5.5 5.7 5.5 5.3 5.4 5.2 4.9 4.5 4.8 4.9 4.5 4.6 4.6 4.7 4.9 4.7 4.5 4.3 4.2
5.7 5.6 5.5 5.5 5.6 5.2 5.1 5.1 5.0 4.9 4.5 4.5 4.5 4.3 4.9 4.9 4.4 4.6 4.5 4.3 4.2 4.2
5.6 5.6 5.5 5.5 5.3 5.0 4.6 4.5 4.6 4.5 4.5 4.3 4.5 4.7 4.5 4.6 4.5 4.5 4.4 4.2 4.3 4.1
5.3 5.0 5.0 5.1 5.0 4.7 4.7 5.0 4.7 4.4 4.7 4.9 4.6 4.5 4.4 4.4 4.6 4.6 4.3 3.9 4.2 4.2
Wind_Speed
18 12 11 12 11 8 8 9 11 11 13 13 13 12 11 7 6 7 7 9 6 6
15 14 15 15 13 11 12 11 14 15 11 15 15 13 10 6 7 8 7 7 6 5
17 16 11 12 13 13 12 11 13 14 14 10 10 15 11 8 7 8 5 4 6 5
15 13 12 10 8 9 12 14 14 13 15 13 12 9 9 8 8 9 8 7 6 5
14 14 13 13 13 13 13 12 12 11 12 11 10 8 9 10 8 10 8 7 6 5
15 16 14 15 14 13 13 11 11 10 11 13 11 11 9 8 8 9 8 7 6 6
15 15 14 14 13 12 12 12 11 10 10 12 12 11 11 10 9 9 8 8 7 6
12 13 13 12 12 12 12 10 10 11 11 11 11 8 10 10 9 8 8 7 7 6
14 13 13 13 12 13 13 12 13 12 10 11 7 15 15 12 9 8 8 7 6 5
16 15 13 14 14 14 12 13 14 13 10 11 11 16 15 13 7 7 6 6 3 2
17 16 13 14 14 12 14 14 12 12 11 12 10 17 15 13 8 6 6 4 2 1
15 16 13 13 12 11 13 12 11 10 11 12 11 15 13 10 6 5 5 5 1 1
14 15 14 13 12 10 11 11 9 10 9 12 10 11 10 7 4 5 2 5 3 2
14 14 13 12 11 11 12 10 10 10 9 8 7 9 9 5 2 3 3 2 0 2
Wind_Direction
142 151 157 152 146 139 132 134 137 122 115 112 108 106 106 101 89 87 88 86 86 82
153 155 155 156 148 152 154 155 149 141 135 133 123 119 113 107 103 103 93 89 97 95
170 157 169 156 164 163 155 148 138 132 126 112 107 124 120 114 112 98 96 108 93 98
162 158 164 147 137 147 134 138 134 130 123 123 128 120 117 123 143 122 111 105 95 85
155 151 151 150 147 143 132 130 132 129 126 122 125 132 147 135 123 126 119 116 118 114
155 152 149 142 144 142 135 132 126 129 132 133 135 135 120 124 127 113 116 121 118 111
153 152 146 136 136 138 129 129 128 131 139 125 133 129 135 128 124 120 119 117 107 94
137 128 122 122 126 119 110 109 113 126 117 122 119 126 131 130 124 126 114 104 104 100
109 105 109 105 103 102 103 114 120 108 117 125 108 135 125 120 128 125 125 118 115 106
104 98 101 107 107 104 118 131 121 122 124 110 118 120 118 122 119 112 111 103 95 124
108 105 107 108 107 128 137 126 122 123 128 127 123 129 120 106 104 109 106 97 123 185
117 109 114 109 127 131 117 116 121 126 135 128 128 123 117 112 118 120 153 110 221 268
112 120 123 127 119 114 111 116 118 119 129 125 123 128 124 127 173 115 184 151 214 58
123 126 126 121 119 116 116 117 119 116 111 118 128 136 138 119 146 144 217 127 289 37